Location: Island Grove Observatory.
(44.2333°N, 79.4500°W)
Time: 11:51:15
(UTC-05:00)

N. Korean satellite - Pass Details

Date: 02 December 2021
Orbit: 447 x 491 km, 97.3° (Epoch: 23 January)

Event Time Altitude Azimuth Distance (km) Brightness Sun altitude
Rises 17:39:25 0° 205° (SSW) 2,537 11.0 -10.4°
Reaches altitude 10° 17:42:05 10° 227° (SW) 1,654 10.5 -10.9°
Maximum altitude 17:44:23 16° 267° (W) 1,311 9.9 -11.3°
Drops below altitude 10° 17:46:40 10° 308° (NW) 1,645 9.7 -11.7°
Sets 17:49:20 0° 330° (NNW) 2,518 10.3 -12.1°
